Preview of NWS' New Version of Forecast
This preview is not operational and should not be used for support decisions.
Latest weather observations around

Canton, Cherokee County Airport (KCNI)

Using English Units (Switch to International System of Units)
Date/ Time (EST) Wind (mph) Vis. (mi) Weather Sky Cond. Temp (°F) Rel. Humidity Wind Chill (°F) Heat Index (°F) Pressure Precip. (in)
Air Dwpt 6 hour Altimeter (inHg) Sea level (inHg) 1 hr 3 hr 6 hr
Max Min
Feb 21 16:55 Calm 3 Fog/Mist OVC004 59 57     94%     30.09        
Feb 21 16:35 Calm 3 Fog/Mist OVC004 59 57     94%     30.1        
Feb 21 16:15 Calm 7 Cloudy OVC004 59 57     94%     30.09        
Feb 21 15:55 Calm 7 Light Rain OVC004 59 57     94%     30.1        
Feb 21 15:35 Calm 5 Fog/Mist OVC004 59 57     94%     30.1        
Feb 21 15:15 Calm 4 Fog/Mist OVC004 59 55     88%     30.1        
Feb 21 14:55 Calm 5 Fog/Mist OVC004 59 55     88%     30.1        
Feb 21 14:35 Calm 2.5 Light Rain OVC004 59 55     88%     30.09        
Feb 21 14:15 Calm 4 Light Rain OVC004 57 55     94%     30.1        
Feb 21 13:55 Calm 5 Fog/Mist OVC004 57 55     94%     30.11        
Feb 21 13:35 Calm 4 Fog/Mist OVC004 57 55     94%     30.11        
Feb 21 13:15 Calm 5 Fog/Mist OVC004 55 55     100%     30.12        
Feb 21 12:55 Calm 4 Fog/Mist OVC004 55 54     94%     30.13        
Feb 21 12:35 Calm 5 Fog/Mist OVC004 55 54     94%     30.14        
Feb 21 12:15 Calm 10 Cloudy OVC004 55 54     94%     30.14        
Notice The following observation data may not be complete
Feb 21 11:55 Calm 10 Cloudy OVC004          %     30.15        
Notice The following observation data may not be complete
Feb 21 11:35 Calm 10 Cloudy OVC004          %     30.14        
Notice The following observation data may not be complete
Feb 21 11:15 Calm 10 Cloudy OVC004          %     30.15        
Notice The following observation data may not be complete
Feb 21 10:55 Calm 10 Cloudy OVC002          %     30.14        
Notice The following observation data may not be complete
Feb 21 10:35 Calm 7 Cloudy BKN002 OVC008          %     30.15        
Notice The following observation data may not be complete
Feb 21 10:15 Calm 10 Cloudy BKN002 OVC008          %     30.14        
Notice The following observation data may not be complete
Feb 21 09:55 Calm 7 Light Rain BKN002 OVC008          %     30.15        
Notice The following observation data may not be complete
Feb 21 09:35 Calm 0.75 Light Drizzle BKN002 OVC008          %     30.15        
Notice The following observation data may not be complete
Feb 21 09:15 Calm 2.5 Rain SCT002 OVC007          %     30.15        
Notice The following observation data may not be complete
Feb 21 08:55 Calm 1 Light Rain OVC007          %     30.14        
Notice The following observation data may not be complete
Feb 21 08:35 Calm 1 Heavy Rain OVC005          %     30.14        
Notice The following observation data may not be complete
Feb 21 08:15 Calm 4 Rain OVC007          %     30.14        
Notice The following observation data may not be complete
Feb 21 07:55 Calm 7 Drizzle OVC007          %     30.14        
Notice The following observation data may not be complete
Feb 21 07:35 Calm 4 Haze OVC007          %     30.13        
Notice The following observation data may not be complete
Feb 21 07:15 Calm 1.25 Light Drizzle OVC007          %     30.12        
Notice The following observation data may not be complete
Feb 21 06:55 Calm 0.75 Fog/Mist BKN003 OVC009          %     30.09        
Notice The following observation data may not be complete
Feb 21 06:35 Calm 1.5 Light Rain SCT003 OVC009          %     30.08        
Notice The following observation data may not be complete
Feb 21 06:15 Calm 2.5 Light Rain SCT003 OVC009          %     30.1        
Notice The following observation data may not be complete
Feb 21 05:55 Calm 2.5 Light Rain SCT003 OVC009          %     30.07        
Notice The following observation data may not be complete
Feb 21 05:35 Calm 7 Clear            %     30.08        
Notice The following observation data may not be complete
Feb 21 05:15 Calm 5 Clear            %     30.07        
Notice The following observation data may not be complete
Feb 21 04:55 Calm 1.25 Clear            %     30.08        
Notice The following observation data may not be complete
Feb 21 04:35 E 3 10 Light Rain OVC005          %     30.04        
Notice The following observation data may not be complete
Feb 21 04:15 Calm 10 Light Rain OVC005          %     30.04        
Notice The following observation data may not be complete
Feb 21 03:55 Calm 10 Light Drizzle OVC003          %     30.05        
Notice The following observation data may not be complete
Feb 21 03:35 E 3 10 Light Drizzle BKN003 OVC007          %     30.05        
Notice The following observation data may not be complete
Feb 21 03:15 E 5 7 Light Rain OVC003          %     30.07        
Notice The following observation data may not be complete
Feb 21 02:55 ESE 9 4 Light Rain BKN003 OVC008          %     30.05        
Notice The following observation data may not be complete
Feb 21 02:35 E 8 10 Rain BKN003 OVC008          %     30.07        
Notice The following observation data may not be complete
Feb 21 02:15 E 7 7 Rain OVC003          %     30.08        
Notice The following observation data may not be complete
Feb 21 01:55 ENE 7 2.5 Heavy Rain OVC003          %     30.06        
Feb 21 01:35 E 6 2.5 Heavy Rain   46 45     93% 43   30.09        
Notice The following observation data may not be complete
Feb 21 01:15 E 5 3 Heavy Rain OVC002          %     30.08        
Notice The following observation data may not be complete
Feb 21 00:55 Calm 4 Heavy Rain OVC002          %     30.09        
Notice The following observation data may not be complete
Feb 21 00:35 E 6 7 Drizzle OVC002          %     30.1        
Notice The following observation data may not be complete
Feb 21 00:15 E 7 10 Light Drizzle OVC002          %     30.1        
Notice The following observation data may not be complete
Feb 20 23:55 ENE 3 7 Light Rain OVC002          %     30.08        
Notice The following observation data may not be complete
Feb 20 23:35 E 8 10 Rain OVC002          %     30.1        
Notice The following observation data may not be complete
Feb 20 23:15 ENE 7 7 Light Rain OVC002          %     30.1        
Notice The following observation data may not be complete
Feb 20 22:55 E 6 10 Rain OVC002          %     30.11        
Notice The following observation data may not be complete
Feb 20 22:35 E 7 4 Clear            %     30.08        
Notice The following observation data may not be complete
Feb 20 22:15 E 5 5 Clear            %     30.11        
Notice The following observation data may not be complete
Feb 20 21:55 ENE 3 0.75 Clear            %     30.1        
Notice The following observation data may not be complete
Feb 20 21:35 ENE 6 1.75 Unknown Precipitation OVC004          %     30.08        
Notice The following observation data may not be complete
Feb 20 21:15 E 3 1 Light Snow OVC004          %     30.08        
Notice The following observation data may not be complete
Feb 20 20:55 ENE 6 4 Rain OVC004          %     30.08        
Notice The following observation data may not be complete
Feb 20 20:35 E 8 10 Light Rain OVC004          %     30.07        
Notice The following observation data may not be complete
Feb 20 20:15 Calm 4 Rain OVC004          %     30.1        
Notice The following observation data may not be complete
Feb 20 19:55 E 5 2 Light Rain OVC004          %     30.08        
Notice The following observation data may not be complete
Feb 20 19:35 E 10 10 Cloudy OVC004          %     30.06        
Notice The following observation data may not be complete
Feb 20 19:15 E 5 10 Cloudy OVC004          %     30.07        
Notice The following observation data may not be complete
Feb 20 18:55 ENE 10 10 Light Rain OVC002          %     30.03        
Notice The following observation data may not be complete
Feb 20 18:35 E 7 7 Rain OVC002          %     30.06        
Notice The following observation data may not be complete
Feb 20 18:15 E 9 10 Light Rain OVC002          %     30.07        
Notice The following observation data may not be complete
Feb 20 17:55 ESE 10 5 Haze OVC002          %     30.08        
Notice The following observation data may not be complete
Feb 20 17:35 E 7 3 Light Rain OVC002          %     30.08        
Notice The following observation data may not be complete
Feb 20 17:15 E 5 2 Light Rain OVC002          %     30.09        
Notice The following observation data may not be complete
Feb 20 16:55 E 10 1.75 Heavy Rain OVC002          %     30.07        
Notice The following observation data may not be complete
Feb 20 16:35 E 8 2.5 Fog/Mist OVC002          %     30.08        
Notice The following observation data may not be complete
Feb 20 16:15 E 10 1.5 Fog/Mist OVC002          %     30.08        
Notice The following observation data may not be complete
Feb 20 15:55 ESE 8 1.5 Fog/Mist OVC002          %     30.08        
Notice The following observation data may not be complete
Feb 20 15:35 E 8 2.5 Fog/Mist OVC004          %     30.08        
Notice The following observation data may not be complete
Feb 20 15:15 ENE 6 2 Light Drizzle OVC004          %     30.09        
Notice The following observation data may not be complete
Feb 20 14:55 E 9 2 Fog/Mist OVC004          %     30.1        
Notice The following observation data may not be complete
Feb 20 14:35 E 13 3 Fog/Mist OVC004          %     30.09        
Notice The following observation data may not be complete
Feb 20 14:15 E 11 2.5 Fog/Mist OVC004          %     30.1        
Notice The following observation data may not be complete
Feb 20 13:55 E 11 4 Haze OVC004          %     30.12        
Notice The following observation data may not be complete
Feb 20 13:35 E 10 2.5 Fog/Mist OVC004          %     30.12        
Notice The following observation data may not be complete
Feb 20 13:15 E 8 2.5 Fog/Mist OVC004          %     30.14        
Notice The following observation data may not be complete
Feb 20 12:55 ENE 7 2.5 Fog/Mist OVC004          %     30.14        
Notice The following observation data may not be complete
Feb 20 12:35 E 9 3 Fog/Mist OVC004          %     30.14        
Notice The following observation data may not be complete
Feb 20 12:15 E 8 2 Fog/Mist OVC004          %     30.16        
Notice The following observation data may not be complete
Feb 20 11:55 E 9 2 Light Drizzle OVC004          %     30.17        
Notice The following observation data may not be complete
Feb 20 11:35 ENE 11 2 Fog/Mist OVC004          %     30.17        
Notice The following observation data may not be complete
Feb 20 11:15 E 11 1.75 Fog/Mist OVC004          %     30.17        
Notice The following observation data may not be complete
Feb 20 10:55 ENE 13 2 Fog/Mist OVC004          %     30.16        
Notice The following observation data may not be complete
Feb 20 10:35 E 9 2 Fog/Mist OVC004          %     30.17        
Notice The following observation data may not be complete
Feb 20 10:15 E 13 3 Fog/Mist OVC004          %     30.17        
Notice The following observation data may not be complete
Feb 20 09:55 E 11 3 Fog/Mist OVC004          %     30.17        
Notice The following observation data may not be complete
Feb 20 09:35 E 13 3 Fog/Mist OVC004          %     30.18        
Notice The following observation data may not be complete
Feb 20 09:15 E 9 3 Fog/Mist OVC004          %     30.19        
Notice The following observation data may not be complete
Feb 20 08:55 E 11 2.5 Fog/Mist OVC004          %     30.19        
Notice The following observation data may not be complete
Feb 20 08:35 E 11 5 Haze OVC004          %     30.2        
Notice The following observation data may not be complete
Feb 20 08:15 E 11 5 Haze OVC004          %     30.19        
Notice The following observation data may not be complete
Feb 20 07:55 E 10 5 Haze OVC004          %     30.2        
Notice The following observation data may not be complete
Feb 20 07:35 E 8 7 Cloudy OVC004          %     30.21        
Notice The following observation data may not be complete
Feb 20 07:15 ENE 9 4 Rain OVC004          %     30.21        
Notice The following observation data may not be complete
Feb 20 06:55 E 14 5 Light Rain OVC004          %     30.2        
Notice The following observation data may not be complete
Feb 20 06:35 E 10 5 Light Drizzle OVC004          %     30.2        
Notice The following observation data may not be complete
Feb 20 06:15 E 11 5 Haze OVC004          %     30.21        
Notice The following observation data may not be complete
Feb 20 05:55 ENE 10 5 Haze OVC004          %     30.21        
Notice The following observation data may not be complete
Feb 20 05:35 E 11 4 Light Rain OVC004          %     30.21        
Notice The following observation data may not be complete
Feb 20 05:15 E 8 5 Haze OVC004          %     30.21        
Notice The following observation data may not be complete
Feb 20 04:55 E 10 5 Light Drizzle OVC004          %     30.21        
Notice The following observation data may not be complete
Feb 20 04:35 E 14 4 Light Drizzle OVC004          %     30.21        
Notice The following observation data may not be complete
Feb 20 04:15 E 13 4 Light Rain OVC004          %     30.23        
Notice The following observation data may not be complete
Feb 20 03:55 E 10 4 Light Drizzle OVC004          %     30.25        
Notice The following observation data may not be complete
Feb 20 03:35 E 10 4 Light Rain OVC004          %     30.25        
Notice The following observation data may not be complete
Feb 20 03:15 ENE 10 4 Light Drizzle OVC004          %     30.25        
Notice The following observation data may not be complete
Feb 20 02:55 E 8 5 Light Rain OVC004          %     30.27        
Notice The following observation data may not be complete
Feb 20 02:35 E 11 3 Light Rain OVC004          %     30.27        
Notice The following observation data may not be complete
Feb 20 02:15 E 7 4 Light Rain OVC004          %     30.27        
Notice The following observation data may not be complete
Feb 20 01:55 E 8 4 Light Drizzle OVC004          %     30.27        
Notice The following observation data may not be complete
Feb 20 01:35 E 11 5 Light Drizzle OVC004          %     30.26        
Notice The following observation data may not be complete
Feb 20 01:15 E 14 7 Cloudy OVC004          %     30.27        
Notice The following observation data may not be complete
Feb 20 00:55 E 14 4 Light Rain OVC004          %     30.28        
Notice The following observation data may not be complete
Feb 20 00:35 ENE 11 3 Light Rain OVC004          %     30.28        
Notice The following observation data may not be complete
Feb 20 00:15 ENE 11 4 Drizzle OVC006          %     30.28        
Notice The following observation data may not be complete
Feb 19 23:55 E 9 5 Haze OVC006          %     30.29        
Notice The following observation data may not be complete
Feb 19 23:35 E 10 7 Clear            %     30.29        
Notice The following observation data may not be complete
Feb 19 23:15 ENE 8 10 Clear            %     30.3        
Notice The following observation data may not be complete
Feb 19 22:55 E 15 10 Clear            %     30.3        
Notice The following observation data may not be complete
Feb 19 22:35 E 11 7 Light Rain OVC006          %     30.3        
Notice The following observation data may not be complete
Feb 19 22:15 E 11 7 Rain OVC006          %     30.31        
Feb 19 21:55 E 16 7 Light Drizzle OVC006 37 36     93% 28   30.32        
Feb 19 21:35 E 13 5 Light Rain OVC006 37 36     93% 29   30.33        
Feb 19 21:15 E 11 4 Drizzle OVC006 37 36     93% 30   30.32        
Feb 19 20:55 E 11 3 Drizzle OVC006 37 36     93% 30   30.3        
Feb 19 20:35 E 13 4 Light Rain OVC006 37 36     93% 29   30.3        
Feb 19 20:15 E 17 4 Light Rain OVC004 37 36     93% 28   30.3        
Feb 19 19:55   4 Light Rain OVC004 37 37     100%     30.3        
Feb 19 19:35 E 11 4 Light Rain OVC004 39 37     93% 32   30.33        
Feb 19 19:15 E 8 4 Rain OVC004 39 37     93% 34   30.32        
Feb 19 18:55 E 13 1.25 Unknown Precipitation OVC004 39 37     93% 32   30.33        
Feb 19 18:35 E 9 4 Light Rain OVC004 39 37     93% 33   30.34        
Feb 19 18:15 E 8 2 Light Snow OVC004 41 37     87% 36   30.35        
Feb 19 17:55 E 7 2 Light Rain OVC004 41 37     87% 36   30.33        
Feb 19 17:35 ENE 5 1.5 Unknown Precipitation OVC004 41 37     87% 38   30.35        
Feb 19 17:15 ENE 5 1.25 Light Snow OVC004 41 37     87% 38   30.35        
Feb 19 16:55 NE 3 1.5 Light Snow OVC006 41 37     87% 39   30.38        
Feb 19 16:35 ENE 9 1 Snow OVC006 39 37     93% 33   30.36        
Feb 19 16:15 ENE 11 1.75 Light Snow OVC006 39 36     87% 32   30.31        
Feb 19 15:55 ENE 8 1 Heavy Rain OVC006 39 37     93% 34   30.31        
Feb 19 15:35 ENE 14 2 Rain OVC006 39 37     93% 31   30.32        
Feb 19 15:15 ENE 8 4 Light Rain OVC006 39 37     93% 34   30.39        
Feb 19 14:55 ENE 10 3 Rain OVC006 41 37     87% 35   30.4        
Feb 19 14:35 ENE 10 1.5 Rain OVC006 41 37     87% 35   30.4        
Feb 19 14:15 NE 6 4 Rain OVC006 41 37     87% 37   30.42        
Feb 19 13:55 E 9 5 Light Rain OVC008 41 37     87% 35   30.43        
Feb 19 13:35 ENE 9 1.5 Light Rain OVC006 41 37     87% 35   30.4        
Feb 19 13:15 ENE 8 4 Rain BKN006 BKN013 OVC022 41 37     87% 36   30.42        
Feb 19 12:55 ENE 9 4 Light Rain BKN006 OVC010 41 37     87% 35   30.42        
Feb 19 12:35 ENE 8 7 Rain OVC009 43 37     81% 38   30.43        
Feb 19 12:15 ENE 11 7 Rain BKN011 BKN026 OVC049 43 37     81% 37   30.43        
Feb 19 11:55 E 11 5 Light Rain BKN013 BKN029 OVC070 43 37     81% 37   30.43        
Feb 19 11:35 ENE 8 10 Light Drizzle SCT011 SCT044 OVC080 43 37     81% 38   30.43        
Feb 19 11:15 ENE 9 10 Cloudy SCT070 OVC080 43 37     81% 37   30.44        
Feb 19 10:55 ENE 14 7 Drizzle SCT065 OVC080 43 37     81% 36   30.45        
Feb 19 10:35 E 11 10 Rain SCT050 SCT070 OVC080 43 37     81% 37   30.45        
Feb 19 10:15 ENE 9 7 Rain SCT010 SCT065 OVC090 43 37     81% 37   30.45        
Feb 19 09:55 ENE 9 10 Rain SCT065 SCT075 OVC090 43 37     81% 37   30.46        
Feb 19 09:35 ENE 6 10 Drizzle SCT065 OVC090 43 39     87% 39   30.47        
Feb 19 09:15 ENE 3 10 Drizzle SCT075 OVC090 43 39     87% 41   30.48        
Feb 19 08:55 NE 7 10 Drizzle OVC070 43 39     87% 39   30.48        
Feb 19 08:35 E 6 10 Light Drizzle SCT070 BKN080 OVC090 41 37     87% 37   30.47        
Feb 19 08:15 Calm 4 Light Rain OVC070 41 37     87%     30.46        
Feb 19 07:55 S 5 7 Light Rain BKN070 OVC090 41 37     87% 38   30.46        
Feb 19 07:35 NNE 5 5 Clear   39 36     87% 36   30.44        
Feb 19 07:15 Calm 10 Clear   39 36     87%     30.42        
Feb 19 06:55 Calm 7 Clear   37 36     93%     30.42        
Feb 19 06:35 NW 3 10 Light Rain OVC090 37 34     87% 35   30.42        
Feb 19 06:15 Calm 10 Light Rain OVC090 39 34     81%     30.4        
Feb 19 05:55 Calm 10 Light Rain OVC100 39 32     75%     30.38        
Feb 19 05:35 Calm 10 Light Rain OVC100 39 32     75%     30.41        
Feb 19 05:15 Calm 10 Rain OVC100 39 32     75%     30.39        
Feb 19 04:55 NW 7 10 Cloudy OVC090 39 32     75% 34   30.4        
Feb 19 04:35 Calm 10 Cloudy OVC090 39 34     81%     30.34        
Feb 19 04:15 NNW 3 10 Light Rain BKN100 OVC120 39 32     75% 37   30.35        
Feb 19 03:55 Calm 10 Light Rain OVC110 39 30     70%     30.35        
Feb 19 03:35 NW 3 10 Cloudy OVC100 39 30     70% 37   30.36        
Feb 19 03:15 WSW 5 10 Cloudy OVC110 41 30     65% 38   30.38        
Feb 19 02:55 NW 8 10 Cloudy OVC110 41 30     65% 36   30.36        
Feb 19 02:35 NW 3 10 Cloudy SCT090 OVC110 41 32     70% 39   30.35        
Feb 19 02:15 WNW 6 10 Cloudy OVC110 41 30     65% 37   30.37        
Feb 19 01:55 WNW 5 10 Cloudy OVC110 41 32     70% 38   30.36        
Feb 19 01:35 Calm 10 Cloudy OVC110 41 32     70%     30.34        
Feb 19 01:15 NW 3 10 Cloudy OVC110 41 32     70% 39   30.35        
Feb 19 00:55 NNW 3 10 Mostly Cloudy SCT095 BKN110 41 30     65% 39   30.35        
Feb 19 00:35 WNW 5 10 Partly Cloudy SCT120 41 30     65% 38   30.37        
Feb 19 00:15 WNW 7 10 Partly Cloudy SCT120 41 30     65% 36   30.36        
Feb 18 23:55 NW 9 10 Clear CLR 41 30     65% 35   30.35        
Feb 18 23:35 NW 5 10 Clear CLR 41 30     65% 38   30.34        
Feb 18 23:15 WNW 7 10 Clear CLR 41 30     65% 36   30.35        
Feb 18 22:55 WSW 5 10 Clear CLR 43 30     61% 40   30.36        
Feb 18 22:35 W 3 10 Clear CLR 43 30     61% 41   30.35        
Feb 18 22:15 NW 7 10 Clear CLR 43 30     61% 39   30.34        
Feb 18 21:55 NW 8 10 Clear CLR 43 30     61% 38   30.34        
Feb 18 21:35   10 Clear CLR 45 28     53%     30.34        
Feb 18 21:15 W 8 10 Clear CLR 45 28     53% 40   30.34        
Feb 18 20:55 WNW 9 10 Clear CLR 45 28     53% 40   30.33        
Feb 18 20:35 NW 8 10 Clear CLR 45 28     53% 40   30.3        
Feb 18 20:15 NW 9 10 Clear CLR 45 28     53% 40   30.3        
Feb 18 19:55 WNW 8 10 Clear CLR 46 30     53% 42   30.3        
Feb 18 19:35 WNW 8 10 Clear CLR 46 30     53% 42   30.29        
Feb 18 19:15 WNW 8 10 Clear CLR 46 32     57% 42   30.28        
Feb 18 18:55 WNW 8 10 Clear CLR 46 32     57% 42   30.26        
Feb 18 18:35 NW 8 10 Clear CLR 48 32     53% 45   30.25        
Feb 18 18:15 WNW 8 10 Clear CLR 48 32     53% 45   30.25        
Feb 18 17:55 WNW 7 10 Clear CLR 48 32     53% 45   30.25        
Feb 18 17:35 WNW 7 10 Clear CLR 48 32     53% 45   30.25        
Feb 18 17:15 WNW 7 10 Clear CLR 50 32     50%     30.25        
Feb 18 16:55 WNW 10 10 Clear CLR 50 32     50%     30.26        
May 15 14:55 ESE 11 10 Mostly Cloudy SCT028 BKN032 BKN120 82        %     30.01        
May 15 13:55 ENE 6 10 Partly Cloudy SCT120 81 63     54%   82 30.03        
May 15 07:35 Calm 10 Mostly Cloudy SCT027 BKN036 BKN070 70 63     78%     30.07        
May 14 21:35 Calm 10 Clear CLR 81        %     30        
May 14 20:15 Calm 10 Clear CLR 84        %     30        
May 14 11:55 WNW 5 10 Clear CLR 86        %     30.08        
Notice The following observation data may not be complete
May 14 09:55 Calm 10 Clear CLR   61      %     30.09        
May 14 08:35 Calm 10 Clear CLR 68 63     83%     30.09        
May 14 05:35 Calm 7 Clear CLR 63 61     94%     30.05        
May 14 00:35 Calm 10 Clear CLR 70 61     73%              
May 13 20:55 Calm 10 Clear CLR 79 59     51%   79 30.08        
May 13 13:15 WNW 10 10 Clear   86        %     30.15        
May 13 05:55 Calm 10 Clear CLR 59 54     82%     30.13        
May 13 05:15 Calm 10 Clear CLR 61 57     88%     30.12        
May 13 01:15 Calm 10 Clear CLR 63 55     77%     30.12        
May 12 18:15 WNW 5 10 Clear CLR 88        %     30.13        
May 12 14:35 W 3 10 Clear CLR 88        %     30.17        
May 12 08:15 Calm 7 Clear CLR 64 61     88%     30.2        
May 12 07:35 Calm 7 Clear CLR 63 61     94%     30.19        
May 12 04:35 Calm 4 Clear   63 61     94%     30.15        
May 11 21:55 Calm 10 Clear CLR 72 63     73%   72 30.13        
Notice The following observation data may not be complete
May 11 20:55 Calm 10 Clear CLR          %     30.12        
May 11 19:55 Calm 10 Clear CLR 82        %     30.11        
May 11 19:35 Calm 10 Clear CLR 84        %     30.11        
May 11 14:35 Calm 10 Clear CLR 86        %     30.14        
May 11 11:35 WNW 8 10 Clear CLR 81        %     30.18        
May 11 09:55 Calm 10 Clear CLR 73 63     69%   74 30.17        
Jun 12 08:55 Calm 10 Cloudy BKN008 OVC012 72 66     83%   72 30.25        
Jun 12 02:35 Calm 10 Clear CLR 73 64     73%   74 30.21        
Jun 11 23:35 E 3 10 Mostly Cloudy SCT029 BKN049 77 63     61%   77 30.21        
Jun 11 22:55 ESE 3 10 Partly Cloudy SCT049 77        %     30.21        
Jun 11 19:55 Calm 10 Partly Cloudy SCT055 82        %     30.17        
Jun 11 16:15 E 8 10 Partly Cloudy SCT038 88        %     30.2        
Jun 11 15:15 E 6 10 Mostly Cloudy SCT037 SCT042 BKN055 86        %     30.22        
Jun 11 07:35 Calm 10 Partly Cloudy SCT008 64 61     88%     30.21        
Jun 10 23:15 Calm 10 Clear CLR 73        %     30.18        
Jun 10 22:35 Calm 10 Clear CLR 75        %     30.16        
Jun 10 19:55 Calm 10 Mostly Cloudy BKN060 BKN075 82        %     30.11        
Jun 10 19:35 Calm 10 Partly Cloudy SCT060 81        %     30.1        
Jun 10 16:15 ENE 5 10 Partly Cloudy SCT055 SCT080 86        %     30.12        
Jun 10 11:35 Calm 10 Partly Cloudy SCT070 79        %     30.15        
Jun 10 11:15 Calm 10 Partly Cloudy SCT060 SCT070 77        %     30.16        
Jun 10 10:55 Calm 10 Mostly Cloudy SCT050 BKN070 77        %     30.16        
Jun 10 05:55 Calm 5 Fog/Mist CLR 59 55     88%     30.07        
Jun 10 05:15 Calm 5 Fog/Mist CLR 59 55     88%     30.06        
Jun 09 18:15 WNW 7 10 Clear CLR 81 46     30%   80 29.97        
Notice The following observation data may not be complete
Jun 09 15:35   10 Partly Cloudy SCT070          %              
Notice The following observation data may not be complete
Jun 09 15:15   10 Clear CLR          %              
Jun 09 14:55 WNW 3 10 Clear CLR 81        %     30        
Jun 09 09:55 Calm 10 Clear CLR 70 55     60%     30.02        
Jun 09 06:15 Calm 5 Fog/Mist CLR 59 55     88%     29.97        
Jun 08 23:35 Calm 10 Clear CLR 66 59     78%     29.93        
Jun 08 13:35 SSW 3 10 Partly Cloudy SCT036 SCT060 SCT085 75 48     38%   74 29.95        
Jun 08 12:35 ENE 3 10 Partly Cloudy SCT031 SCT041 SCT050 73        %     29.96        
Jun 08 10:15 ENE 7 10 Partly Cloudy SCT016 SCT100 70 54     56%     29.97        
Jun 08 09:35 ENE 5 10 Partly Cloudy SCT012 68 54     60%     29.97        
Jun 07 23:35 Calm 10 Light Drizzle SCT037 SCT042 OVC050 66 59     78%     29.91        
Jun 07 22:55 Calm 10 Cloudy BKN036 BKN055 OVC070 68 55     64%     29.91        
Jun 07 19:55 E 5 10 Mostly Cloudy SCT050 BKN075 77 52     41%   76 29.86        
Jun 07 16:15 Calm 10 Mostly Cloudy SCT060 BKN090 77 52     41%   76 29.85        
Jun 07 13:35 E 3 10 Clear CLR 79        %     29.86        
Notice The following observation data may not be complete
Jun 07 09:35   10 Mostly Cloudy BKN060 BKN070          %              
Jun 06 15:15 WNW 3 10 Clear CLR 79 61     54%   79 29.8        
Jun 06 06:35 Calm 1.25 Fog/Mist BKN009 70 66     88%     29.84        
Jun 06 05:55 Calm 1.5 Light Rain SCT005 BKN120 70 68     94%     29.84        
Notice The following observation data may not be complete
Jun 06 04:35   5 Fog/Mist OVC003          %              
Notice The following observation data may not be complete
Jun 06 03:35   7 Partly Cloudy SCT003 SCT080 SCT120          %              
Jun 06 01:35 Calm 7 Partly Cloudy SCT120 70 68     94%     29.86        
Jun 05 22:55 W 3 10 Clear   72 68     88%   73 29.87